This demonstration page uses our WeatherBlox Daily Observations layout. Learn more.

Hourly Observations for April 1, 2019

Temp ( °F °C ) Dew Point ( °F °C ) Humidity (%) Winds ( mph kmh ) Pressure ( in mb ) Visibility ( mi km ) Precip ( " mm )
12:15 am 00:15 Clear 36 2.1 26 -3.1 69 69 SW 6 9 30.26 1025 10 16.0934 0 0
12:35 am 00:35 Clear 35 1.6 27 -3 72 72 SW 8 13 30.26 1025 10 16.0934 0 0
12:55 am 00:55 Clear 35 1.9 27 -2.8 71 71 SW 8 13 30.25 1024 10 16.0934 0 0
1:15 am 01:15 Clear 36 2.2 27 -2.8 70 70 SW 9 15 30.24 1024 10 16.0934 0 0
1:35 am 01:35 Clear 36 2.1 27 -2.7 71 71 SW 9 15 30.24 1024 10 16.0934 0 0
1:55 am 01:55 Clear 35 1.6 27 -2.6 74 74 SSW 9 15 30.24 1024 10 16.0934 0 0
2:15 am 02:15 Clear 35 1.7 27 -2.7 73 73 SSW 9 15 30.24 1024 10 16.0934 0 0
2:35 am 02:35 Clear 36 2 27 -2.7 71 71 SSW 9 15 30.23 1024 10 16.0934 0 0
2:55 am 02:55 Clear 35 1.5 27 -2.6 74 74 SSW 7 11 30.22 1023 10 16.0934 0 0
3:15 am 03:15 Clear 34 1 28 -2.5 78 78 SW 7 11 30.23 1024 10 16.0934 0 0
3:35 am 03:35 Clear 33 0.8 28 -2.2 81 81 SW 8 13 30.22 1023 10 16.0934 0 0
3:55 am 03:55 Clear 33 0.6 28 -2.2 82 82 SW 8 13 30.22 1023 10 16.0934 0 0
4:15 am 04:15 Clear 34 1 29 -1.9 81 81 SSW 8 13 30.21 1023 10 16.0934 0 0
4:35 am 04:35 Clear 33 0.6 29 -1.8 84 84 SSW 8 13 30.2 1023 10 16.0934 0 0
4:55 am 04:55 Clear 33 0.8 29 -1.7 84 84 SSW 7 11 30.19 1022 10 16.0934 0 0
5:15 am 05:15 Clear 33 0.3 28 -2 85 85 SSW 7 11 30.19 1022 10 16.0934 0 0
5:35 am 05:35 Clear 32 0 28 -2.2 85 85 SSW 5 7 30.2 1023 10 16.0934 0 0
5:55 am 05:55 Clear 30 -1.2 26 -3.1 87 87 Calm 30.21 1023 10 16.0934 0 0
6:15 am 06:15 Clear 30 -0.9 28 -2.2 91 91 S 7 11 30.2 1023 10 16.0934 0 0
6:35 am 06:35 Clear 31 -0.5 28 -2.3 88 88 S 7 11 30.19 1022 10 16.0934 0 0
6:55 am 06:55 Clear 32 0 28 -2 87 87 S 8 13 30.19 1022 10 16.0934 0 0
7:15 am 07:15 Clear 31 -0.5 28 -2.1 89 89 SSW 5 7 30.2 1023 10 16.0934 0 0
7:35 am 07:35 Sunny 31 -0.5 28 -2.3 88 88 S 8 13 30.19 1022 10 16.0934 0 0
7:55 am 07:55 Sunny 31 -0.5 28 -2.1 89 89 Calm 30.21 1023 10 16.0934 0 0
8:15 am 08:15 Sunny 32 -0.2 29 -1.4 92 92 Calm 30.22 1023 10 16.0934 0 0
8:35 am 08:35 Sunny 32 0.2 30 -0.9 92 92 Calm 30.21 1023 10 16.0934 0 0
8:55 am 08:55 Sunny 34 1.1 30 -0.9 87 87 Calm 30.19 1023 10 16.0934 0 0
9:15 am 09:15 Partly Cloudy 36 2.1 31 -0.6 83 83 S 3 6 30.19 1022 10 16.0934 0 0
9:35 am 09:35 Mostly Cloudy 37 2.6 31 -0.6 80 80 SSW 3 6 30.17 1022 10 16.0934 0 0
9:55 am 09:55 Mostly Cloudy 39 3.7 32 0 77 77 SSW 5 7 30.16 1021 10 16.0934 0 0
10:15 am 10:15 Partly Cloudy 41 4.9 32 0 71 71 Calm 30.14 1021 10 16.0934 0 0
10:35 am 10:35 Sunny 42 5.8 33 0.4 69 69 Calm 30.13 1020 10 16.0934 0 0
10:55 am 10:55 Sunny 44 6.7 33 0.7 66 66 SSE 5 7 30.12 1020 10 16.0934 0 0
11:15 am 11:15 Sunny 46 7.6 34 1.1 64 64 S 5 7 30.1 1019 10 16.0934 0 0
11:35 am 11:35 Sunny 47 8.5 34 0.9 59 59 S 7 11 30.1 1019 10 16.0934 0 0
11:55 am 11:55 Sunny 49 9.4 35 1.5 58 58 SSE 6 9 30.08 1019 10 16.0934 0 0
12:15 pm 12:15 Sunny 51 10.4 35 1.8 56 56 SSE 7 11 30.05 1018 10 16.0934 0 0
12:35 pm 12:35 Sunny 52 11.2 35 1.9 53 53 SSE 9 15 30.03 1017 10 16.0934 0 0
12:55 pm 12:55 Sunny 54 12 35 1.7 50 50 SSW 7 11 30.02 1016 10 16.0934 0 0
1:15 pm 13:15 Sunny 55 13 36 2 47 47 SSW 9 15 30 1016 10 16.0934 0 0
1:35 pm 13:35 Sunny 56 13.3 35 1.7 46 46 SSW 12 19 29.98 1015 10 16.0934 0 0
1:55 pm 13:55 Sunny 57 14 36 2.2 45 45 SSW 10 17 29.97 1015 10 16.0934 0 0
2:15 pm 14:15 Sunny 58 14.2 35 1.5 42 42 S 9 15 29.97 1015 10 16.0934 0 0
2:35 pm 14:35 Partly Cloudy 59 15.2 34 1.3 39 39 SW 12 19 29.94 1014 10 16.0934 0 0
2:55 pm 14:55 Mostly Cloudy 60 15.5 33 0.6 37 37 SSW 13 20 29.93 1013 10 16.0934 0 0
3:15 pm 15:15 Mostly Cloudy 60 15.7 33 0.3 35 35 SW 8 13 29.91 1013 10 16.0934 0 0
3:35 pm 15:35 Mostly Cloudy 61 16 32 0.1 34 34 SW 9 15 29.9 1013 10 16.0934 0 0
3:55 pm 15:55 Mostly Cloudy 61 16.1 32 0.1 34 34 SW 9 15 29.89 1012 10 16.0934 0 0
4:15 pm 16:15 Mostly Cloudy 60 15.3 32 0.1 36 36 SW 13 20 29.89 1012 10 16.0934 0 0
4:35 pm 16:35 Cloudy 59 14.9 31 -0.3 36 36 WSW 3 6 29.88 1012 10 16.0934 0 0
4:55 pm 16:55 Cloudy 60 15.3 31 -0.4 34 34 SSW 3 6 29.87 1011 10 16.0934 0 0
5:15 pm 17:15 Mostly Cloudy 60 15.4 31 -0.5 34 34 WSW 8 13 29.87 1011 10 16.0934 0 0
5:35 pm 17:35 Mostly Cloudy 62 16.6 32 -0.1 32 32 SW 13 20 29.85 1011 10 16.0934 0 0
5:55 pm 17:55 Partly Cloudy 61 16.1 31 -0.4 33 33 SSW 10 17 29.85 1011 10 16.0934 0 0
6:15 pm 18:15 Sunny 61 16.1 31 -0.4 33 33 SSW 12 19 29.84 1010 10 16.0934 0 0
6:35 pm 18:35 Sunny 59 14.8 32 -0.1 36 36 SSW 7 11 29.85 1011 10 16.0934 0 0
6:55 pm 18:55 Sunny 59 15.2 33 0.3 36 36 SSW 8 13 29.85 1011 10 16.0934 0 0
7:15 pm 19:15 Mostly Cloudy 58 14.5 33 0.6 39 39 S 8 13 29.86 1011 10 16.0934 0 0
7:35 pm 19:35 Cloudy 56 13.2 36 2.1 47 47 WNW 17 28 29.9 1013 10 16.0934 0 0
7:55 pm 19:55 Cloudy 52 11.3 39 3.9 61 61 W 7 11 29.92 1013 10 16.0934 0 0
8:15 pm 20:15 Cloudy 51 10.7 40 4.2 64 64 W 3 6 29.93 1013 10 16.0934 0 0
8:35 pm 20:35 Cloudy 51 10.5 40 4.2 65 65 Calm 29.94 1014 10 16.0934 0 0
8:55 pm 20:55 Cloudy 50 9.8 40 4.5 70 70 N 7 11 29.94 1014 10 16.0934 0 0
9:15 pm 21:15 Cloudy 48 8.7 40 4.4 75 75 Calm 29.95 1014 10 16.0934 0 0
9:35 pm 21:35 Cloudy 47 8.4 40 4.7 78 78 Calm 29.98 1015 10 16.0934 0 0
9:55 pm 21:55 Cloudy 48 8.7 40 4.5 75 75 Calm 29.99 1016 10 16.0934 0 0
10:15 pm 22:15 Partly Cloudy 45 7 39 3.9 81 81 Calm 30.02 1017 10 16.0934 0 0
10:35 pm 22:35 Clear 43 6.2 39 3.9 85 85 N 10 17 30.05 1018 10 16.0934 0 0
10:55 pm 22:55 Mostly Cloudy 40 4.5 37 3 90 90 NNE 16 26 30.09 1019 10 16.0934 0 0
11:15 pm 23:15 Cloudy 38 3.4 37 2.5 94 94 N 20 31 30.11 1020 10 16.0934 0 0
11:35 pm 23:35 Cloudy 36 2.4 35 1.5 94 94 NNE 18 30 30.13 1020 10 16.0934 0 0
11:55 pm 23:55 Cloudy 36 2.1 34 1.2 94 94 N 16 26 30.15 1021 10 16.0934 0 0

Powered by AerisWeather